National Weather Service United States Department of Commerce

Latest Hourly Weather Roundup

TOPSWRTT 000
TTAA00 KICT 232312

Wichita AWIPS Roundup
National Weather Service Wichita KS
600 PM CDT MON MAY 23 2022

....Central Kansas....
  
CITY           SKY/WX    TMP DP  RH WIND       PRES   REMARKS
RUSSELL        PTSUNNY   62  39  42 E12G23    30.04S                  
SALINA         CLOUDY    65  40  39 E20       30.05S                  
GREAT BEND     CLOUDY    61  43  51 SE16G24   30.04R                  
ELLSWORTH      SUNNY     64  39  39 E13       30.05R                  
LYONS          CLOUDY    61  43  51 SE15      30.03F                  
MCPHERSON      CLOUDY    62  44  52 SE15G21   30.05S                  
HAYS           PTSUNNY   61  37  41 SE16      30.06R                  

....South Central Kansas....
  
CITY           SKY/WX    TMP DP  RH WIND       PRES   REMARKS
HUTCHINSON     CLOUDY    61  45  55 SE15      30.05S                  
NEWTON         CLOUDY    60  46  59 SE13      30.08S                  
KINGMAN        CLOUDY    55  46  71 E8        30.04F                  
WICHITA (ICT)  CLOUDY    60  48  64 E15       30.04F                  
JABARA ARPT    CLOUDY    60  48  64 SE13      30.06S                  
BEECH ARPT     CLOUDY    60  47  64 SE12      30.06F                  
MCCONNELL AFB  CLOUDY    61  48  63 SE13      30.06S                  
BENTON         CLOUDY    59  46  61 SE10      30.07F                  
EL DORADO      CLOUDY    61  48  63 E9        30.07F                  
AUGUSTA        CLOUDY    59  45  58 E10       30.06F                  
WELLINGTON     CLOUDY    60  49  67 E14       30.05F                  
WINFIELD       CLOUDY    60  51  72 E12G20    30.05F                  
 
....Southeast Kansas....
  
CITY           SKY/WX    TMP DP  RH WIND       PRES   REMARKS
EUREKA         CLOUDY    60  47  61 E12       30.10R                  
IOLA           CLOUDY    60  46  59 E7        30.10S                  
CHANUTE        CLOUDY    62  48  60 E7        30.09R                  
PARSONS        CLOUDY    62  51  67 CALM      30.09R                  
COFFEYVILLE    LGT RAIN  61  52  72 E3        30.07S                  
INDEPENDENCE   CLOUDY    60  52  74 CALM      30.08F                  
FORT SCOTT     CLOUDY    62  49  61 E7        30.09S                  
PITTSBURG        N/A     62  51  67 MISG      30.08F                  

....Western Kansas....
  
CITY           SKY/WX    TMP DP  RH WIND       PRES   REMARKS
GOODLAND       PTSUNNY   53  38  56 SE8       30.05R                  
HILL CITY      CLOUDY    54  47  77 NE12      30.11R                  
LIBERAL        CLOUDY    56  48  74 E16       29.98F                  
GARDEN CITY    PTSUNNY   57  47  69 SE13      30.01S                  
DODGE CITY     CLOUDY    58  47  66 SE18G25   30.01S                  
PRATT          CLOUDY    60  46  59 SE13G18   30.03F                  
MEDICINE LODGE   N/A     57  49  74 E9G18     30.02F                  

....Northeast Kansas....
  
CITY           SKY/WX    TMP DP  RH WIND       PRES   REMARKS
CONCORDIA      PTSUNNY   65  39  38 E15G22    30.08S                  
TOPEKA         CLOUDY    67  42  40 E13       30.09S                  
MANHATTAN      CLOUDY    66  41  40 SE10      30.07F                  
LAWRENCE       CLOUDY    66  42  41 SE13G21   30.10S                  
OLATHE         CLOUDY    63  42  46 E12       30.11R                  
EMPORIA        CLOUDY    63  46  54 SE8       30.09R                  

....Oklahoma....
  
CITY           SKY/WX    TMP DP  RH WIND       PRES   REMARKS
GAGE           CLOUDY    55  51  86 E9        29.98F                  
PONCA CITY     LGT RAIN  55  53  93 E10       30.01F                  
BARTLESVILLE   RAIN      58  56  93 NE5       30.06F FOG              
TULSA          LGT RAIN  57  56  96 NE7       30.04F FOG              
OKLAHOMA CITY  TSTM      55  54  96 NE10      30.01S FOG              

Note: "fair" indicates few or no clouds below 12,000 feet with no
significant weather and/or obstructions to visibility.